Weather History for PAOU - December, 2013

Change the Weather History Date:

Saturday, December 7, 2013

  Actual Average Record
Temperature  
Mean Temperature 42 °F -  
Max Temperature 43 °F - - ()
Min Temperature 41 °F - - ()
Degree Days  
Heating Degree Days 23    
Moisture  
Dew Point 38 °F    
Average Humidity 83    
Maximum Humidity 93    
Minimum Humidity 74    
Precipitation  
Precipitation 0.00 in - - ()
Sea Level Pressure  
Sea Level Pressure 30.08 in    
Wind  
Wind Speed 31 mph (East)    
Max Wind Speed 41 mph    
Max Gust Speed 48 mph    
Visibility 10 miles    
Events Rain    
T = Trace of Precipitation, MM = Missing Value Source: NWS Daily Summary

Daily Weather History Graph

Daily Weather History Graph

Search for Another Location

Airport or City:

Trip Planner

Search our weather history database for the weather conditions in past years. The results will help you decide how hot, cold, wet, or windy it might be!

Date:

Astronomy

Dec. 07, 2013 Rise Set
Actual Time 10:01 AM AKST 5:11 PM AKST
Civil Twilight 9:14 AM AKST 5:57 PM AKST
Nautical Twilight 8:26 AM AKST 6:46 PM AKST
Astronomical Twilight 7:40 AM AKST 7:31 PM AKST
Moon 1:10 PM AKST (12/7) 11:54 PM AKST (12/7)
Length of Visible Light 8h 42m
Length of Day
7h 09m
Waxing Crescent, 31% of the Moon is Illuminated
Dec 7
Waxing Crescent
Dec 9
First Quarter
Dec 17
Full
Dec 25
Last Quarter
Jan 1
New

Hourly Weather History & Observations

Time (AKST) Temp. Windchill Dew Point Humidity Pressure Visibility Wind Dir Wind Speed Gust Speed Precip Events Conditions
12:56 AM 43.0 °F - 41.0 °F 93% 30.04 in 10.0 mi North - - 0.00 in   Partly Cloudy
1:56 AM 43.0 °F 32.5 °F 39.9 °F 89% 30.04 in 10.0 mi East 29.9 mph 36.8 mph 0.00 in   Partly Cloudy
3:56 AM 43.9 °F 32.8 °F 38.8 °F 82% 30.02 in 10.0 mi East 36.8 mph 42.6 mph N/A   Clear
4:56 AM 43.9 °F 33.8 °F 39.9 °F 86% 30.04 in 10.0 mi East 29.9 mph - N/A   Clear
5:56 AM 43.9 °F 33.1 °F 38.8 °F 82% 30.02 in 10.0 mi East 34.5 mph - N/A   Clear
6:56 AM 43.0 °F 32.0 °F 38.8 °F 85% 30.03 in 10.0 mi East 33.4 mph 41.4 mph N/A   Clear
7:56 AM 43.0 °F 32.9 °F 37.9 °F 82% 30.04 in 10.0 mi ENE 27.6 mph 34.5 mph N/A   Clear
8:56 AM 43.0 °F 32.5 °F 36.9 °F 79% 30.05 in 10.0 mi East 29.9 mph 38.0 mph N/A   Clear
9:56 AM 43.0 °F 32.5 °F 36.9 °F 79% 30.09 in 10.0 mi East 29.9 mph - N/A   Clear
10:56 AM 43.0 °F - 36.0 °F 76% 30.07 in 10.0 mi North - - N/A   Clear
11:56 AM 43.9 °F 34.5 °F 36.0 °F 74% 30.09 in 10.0 mi East 25.3 mph 41.4 mph N/A   Clear
12:56 PM 43.9 °F 33.4 °F 36.0 °F 74% 30.11 in 10.0 mi East 32.2 mph 39.1 mph N/A   Clear
1:56 PM 43.0 °F 34.5 °F 36.9 °F 79% 30.10 in 10.0 mi East 19.6 mph - N/A   Scattered Clouds
2:56 PM 43.9 °F 34.5 °F 36.9 °F 76% 30.09 in 10.0 mi East 25.3 mph - N/A   Scattered Clouds
3:56 PM 43.9 °F 34.7 °F 36.9 °F 76% 30.11 in 10.0 mi ENE 24.2 mph - N/A   Scattered Clouds
4:56 PM 41.9 °F 33.1 °F 37.9 °F 86% 30.10 in 9.0 mi East 19.6 mph 34.5 mph N/A   Clear
5:21 PM 42.8 °F 31.4 °F 37.4 °F 81% 30.09 in 8.0 mi ESE 35.7 mph 39.1 mph N/A   Clear
5:56 PM 41.9 °F 30.4 °F 38.8 °F 89% 30.11 in 10.0 mi ESE 34.5 mph 38.0 mph N/A   Clear
6:56 PM 41.9 °F 31.1 °F 37.9 °F 86% 30.12 in 10.0 mi ESE 29.9 mph 38.0 mph N/A   Partly Cloudy
7:56 PM 41.9 °F 29.6 °F 38.8 °F 89% 30.11 in 9.0 mi SE 40.3 mph 46.0 mph 0.00 in Rain Light Rain
8:56 PM 41.9 °F 29.4 °F 37.9 °F 86% 30.10 in 10.0 mi SE 41.4 mph 48.3 mph 0.00 in   Partly Cloudy
9:56 PM 41.9 °F 29.9 °F 38.8 °F 89% 30.10 in 10.0 mi SE 38.0 mph - N/A   Partly Cloudy
10:56 PM 41.9 °F 30.5 °F 39.9 °F 93% 30.10 in 10.0 mi ESE 33.4 mph - N/A   Partly Cloudy
11:56 PM 41.9 °F 32.6 °F 39.9 °F 93% 30.14 in 10.0 mi ESE 21.9 mph - N/A   Scattered Clouds